Theta_e
287 287 287 287 287 288 287 288 288 288 287 287 286 286 286 285 286 285 285 285 284 284 284 284 284 284 283 284 284 283 282 282 279 281 284 285 284 284 285 286 286 285 285
287 287 287 287 287 287 287 288 288 287 287 286 286 286 285 285 285 285 284 283 283 283 284 284 283 283 283 283 283 282 282 283 281 279 281 282 282 284 284 283 284 284 284
287 286 286 286 286 286 287 287 287 287 286 286 285 285 285 285 284 284 284 284 283 283 283 283 283 283 282 282 283 282 282 282 282 280 280 282 282 283 282 283 283 283 283
286 286 286 286 286 286 287 286 286 286 285 284 284 285 284 284 284 283 283 283 283 283 283 283 282 282 282 282 282 281 281 280 280 279 279 280 281 283 282 281 280 281 281
286 286 286 286 286 286 286 286 286 285 285 284 283 283 282 282 283 282 283 283 282 282 283 283 282 281 281 281 280 280 280 279 279 278 277 278 278 278 277 278 277 277 278
286 285 286 286 285 285 285 285 284 284 284 283 282 281 280 282 282 282 283 283 282 281 281 281 280 280 279 279 279 280 279 277 276 276 276 275 276 276 277 276 275 273 270
285 285 285 285 284 284 284 283 283 282 282 281 280 280 280 281 282 282 282 281 280 278 277 277 277 278 277 276 277 278 278 279 279 277 274 274 275 275 274 272 271 270 270
285 284 284 283 282 282 281 281 281 280 277 276 276 279 279 279 280 280 279 278 277 276 275 275 275 274 275 275 275 275 275 276 277 277 276 275 275 274 274 272 270 269 270
282 281 281 281 279 278 277 276 276 275 274 273 274 274 275 276 278 278 277 276 274 274 275 274 273 273 274 276 274 272 273 273 276 276 276 276 275 275 273 269 266 265 263
277 277 277 276 275 274 274 274 274 273 272 272 270 271 271 273 276 276 275 274 273 273 274 274 274 273 274 275 274 273 271 270 271 271 269 269 270 268 271 268 267 263 263
272 272 272 273 272 272 272 272 272 271 270 269 269 269 269 270 272 274 274 273 272 272 272 272 273 273 274 276 276 272 270 272 270 266 265 265 265 266 266 266 266 264 261
270 269 269 270 271 271 270 270 270 269 269 268 268 268 268 269 271 272 272 273 273 271 270 271 271 273 275 274 273 273 273 271 265 263 262 262 262 262 263 263 263 263 264
267 267 267 268 269 270 269 269 268 269 268 268 268 267 267 268 268 270 271 272 272 271 271 271 273 272 272 270 270 270 268 264 262 260 260 260 261 262 262 261 262 262 262
265 265 266 266 267 268 269 269 268 268 267 267 266 266 266 266 267 268 270 270 271 270 270 270 269 270 269 268 265 265 264 262 260 259 259 260 261 260 259 260 259 259 258
264 264 265 266 266 265 266 267 267 268 268 266 266 266 264 264 266 269 269 269 269 270 269 266 264 264 263 262 262 261 261 261 259 259 259 258 258 258 258 259 258 257 256
263 263 263 263 263 263 263 264 269 269 269 268 268 266 266 267 268 268 269 269 270 270 265 261 260 260 259 259 258 258 259 258 258 258 257 257 256 256 256 257 257 256 255
261 261 261 261 261 261 261 261 260 262 264 265 264 264 265 265 266 267 267 268 268 266 259 258 257 257 257 257 257 257 256 257 258 257 257 256 256 256 255 255 255 255 255
260 260 259 259 259 259 258 258 258 257 257 257 260 262 262 263 264 265 265 263 257 257 256 255 255 255 256 255 256 255 256 256 256 256 255 255 254 254 254 254 254 254 254
258 258 257 257 257 257 257 257 256 256 256 255 256 257 257 259 262 263 262 255 254 254 254 254 254 254 254 255 255 255 255 254 255 254 254 255 255 255 254 254 254 254 254
257 257 257 257 256 256 256 256 255 254 254 254 254 254 254 256 255 254 254 254 253 253 253 253 253 253 253 253 253 253 253 253 253 254 254 254 254 254 254 254 254 254 254
256 255 256 256 255 255 254 253 253 253 253 252 253 254 259 254 252 252 252 252 252 252 252 252 252 252 252 252 252 252 252 253 253 253 253 253 254 253 254 254 254 254 254
256 255 255 254 254 254 253 253 253 252 252 252 252 253 256 252 252 251 252 252 252 252 252 252 251 251 252 251 251 251 251 251 252 252 252 253 253 254 254 254 254 254 254
255 254 254 253 253 251 252 252 252 252 251 251 251 251 251 251 251 250 251 251 251 251 251 251 250 250 251 251 251 251 251 251 252 253 252 253 253 253 254 253 253 253 253
254 253 253 252 252 251 251 251 251 250 250 250 250 250 250 250 250 250 250 250 250 250 250 250 250 249 249 250 250 251 251 252 253 253 253 253 252 253 253 253 254 254 254
252 252 251 251 250 250 250 250 250 250 250 250 250 250 250 250 249 249 249 249 249 248 248 248 249 249 249 248 249 249 250 251 252 253 253 253 253 254 255 255 255 256 256
251 251 251 251 250 250 250 249 249 249 249 249 249 249 249 249 249 249 249 248 248 247 247 248 248 248 248 249 249 250 251 254 254 255 256 257 257 257 258 258 258 257 257
Wind_Speed
16 14 14 13 12 10 9 9 9 9 9 9 8 8 7 7 6 4 4 5 4 3 3 2 1 1 2 2 2 3 4 5 8 7 7 8 11 11 10 9 9 10 10
15 14 13 13 12 11 10 10 9 10 9 9 8 7 7 6 6 5 5 3 4 3 3 2 3 2 3 4 3 5 5 7 7 12 9 9 11 11 11 13 11 10 11
15 14 13 13 13 12 11 11 10 8 8 8 7 7 6 5 5 4 3 3 3 2 2 2 3 3 4 4 5 5 5 6 7 9 10 8 9 9 11 12 12 13 11
15 15 14 14 13 12 11 11 10 9 8 6 5 4 4 4 4 3 3 3 2 1 0 2 3 4 4 5 5 7 7 7 8 9 10 10 9 8 8 10 10 10 11
15 15 14 13 12 12 11 11 10 10 8 8 7 5 5 4 2 3 3 2 1 1 1 1 2 4 5 6 5 7 8 7 8 9 10 10 9 9 11 10 11 13 13
15 14 13 13 12 12 11 11 10 9 9 9 7 6 5 3 5 6 5 3 2 1 1 2 2 3 4 8 9 11 11 8 9 9 10 11 10 11 11 10 10 10 11
13 13 13 13 12 11 11 11 10 10 9 8 7 7 7 6 7 7 6 4 3 3 2 2 3 3 4 6 9 12 12 14 16 12 12 11 12 8 11 12 11 12 15
13 12 12 12 11 10 10 10 10 10 10 8 8 8 8 6 8 10 8 5 4 3 3 3 3 4 5 7 8 8 8 8 9 7 9 9 11 12 13 13 16 17 16
11 11 11 12 13 13 13 12 11 11 10 9 8 8 8 7 9 9 6 4 3 3 2 3 3 4 9 14 9 10 9 5 8 17 22 22 24 27 24 13 12 12 14
12 12 12 13 14 14 13 12 11 11 11 9 10 8 8 7 10 9 7 3 3 2 1 2 5 4 13 17 10 8 8 7 10 11 7 12 15 16 22 11 10 12 13
13 14 15 14 15 14 14 12 11 11 11 10 10 8 8 7 6 9 9 4 3 3 3 4 3 11 17 18 18 9 11 16 14 8 10 10 10 10 9 8 9 9 12
15 16 16 14 12 11 15 12 12 11 11 9 8 7 6 5 7 8 8 7 8 4 5 5 6 17 18 20 17 20 22 19 8 8 9 9 10 10 9 9 12 13 11
17 17 16 15 14 13 13 12 10 9 8 7 6 5 4 4 4 8 8 10 11 7 6 12 20 17 20 14 17 20 15 6 7 8 9 10 9 10 12 12 12 13 14
18 16 13 14 14 12 10 9 8 7 6 6 5 4 3 3 4 5 6 6 9 9 12 8 9 13 14 14 8 9 5 5 6 7 9 9 9 9 10 9 11 11 12
16 14 13 12 12 12 10 9 8 7 7 6 5 4 3 3 4 10 11 8 8 11 14 4 5 6 6 7 7 6 6 6 7 8 8 9 10 10 10 9 10 11 12
15 11 10 9 9 9 9 9 17 14 13 13 11 7 4 7 12 15 17 19 21 22 8 6 7 7 7 7 7 7 7 7 7 7 8 9 10 10 11 10 10 11 12
14 12 9 9 8 8 7 6 6 6 9 10 10 10 9 10 15 18 19 21 19 15 5 6 7 7 7 8 8 8 8 8 8 8 9 9 9 10 12 11 10 11 12
14 16 9 8 7 7 6 6 5 4 3 4 7 10 11 15 17 18 17 14 7 7 6 7 7 7 8 8 8 8 8 8 8 8 9 9 10 10 11 11 11 12 12
10 8 8 8 7 7 6 5 4 3 3 3 5 7 9 14 16 14 15 5 6 6 6 6 6 7 8 8 8 8 9 9 9 9 9 9 9 10 11 11 11 16 17
10 13 9 7 6 5 4 4 3 3 4 4 5 5 6 7 6 6 5 5 5 6 6 6 7 7 8 8 8 8 9 9 9 9 9 9 10 9 11 12 12 13 13
7 7 9 6 5 4 4 4 3 3 3 4 4 5 13 7 6 5 5 6 6 6 7 7 7 7 7 8 8 8 9 9 9 10 10 10 10 10 11 11 13 13 13
7 6 6 5 4 4 3 2 2 2 3 4 5 5 13 4 5 5 6 6 6 6 6 7 7 7 8 8 9 9 10 10 10 10 10 10 11 11 11 12 13 12 13
6 6 5 4 4 2 1 1 1 2 4 4 5 5 5 5 5 6 7 7 7 7 7 7 8 8 8 8 8 9 10 10 10 10 12 12 12 12 12 13 13 13 13
5 5 4 3 2 1 1 2 3 3 4 5 5 5 5 6 6 7 7 7 7 7 7 8 8 10 10 10 9 9 10 10 10 11 15 14 13 15 13 14 14 16 15
4 3 3 2 1 1 2 3 3 4 4 4 5 5 6 6 7 7 7 7 7 8 9 8 8 11 13 14 14 17 17 20 17 17 13 16 18 20 17 15 16 16 17
3 2 1 0 1 1 2 3 3 4 4 5 5 6 6 7 7 7 7 7 7 8 10 9 11 14 16 14 17 18 19 20 18 19 15 13 15 15 14 17 20 14 17
Wind_Direction
180 177 174 175 178 178 177 178 174 164 169 170 170 168 171 169 166 166 155 147 163 154 157 187 240 252 281 285 266 267 269 266 272 277 284 293 295 296 295 291 291 291 287
178 175 175 172 174 178 178 177 171 170 169 171 170 174 177 176 172 176 170 169 187 185 199 206 251 269 268 271 271 282 280 282 282 285 287 290 282 290 296 297 292 286 286
173 173 173 174 177 179 178 174 169 166 164 166 168 176 175 171 171 177 180 188 199 222 241 261 284 291 292 298 303 293 290 289 288 290 293 296 297 293 286 281 282 282 283
170 175 177 180 178 176 173 170 166 163 155 149 149 136 135 136 159 150 177 191 205 222 321 309 311 311 306 315 313 308 310 304 297 286 283 285 286 290 285 295 296 292 294
172 178 178 173 173 173 170 166 165 163 160 147 136 124 120 135 151 153 173 184 219 242 183 90 320 13 337 303 295 298 301 295 298 299 295 298 303 309 300 301 294 294 286
173 176 169 167 168 168 162 163 158 154 149 144 140 131 135 127 155 171 167 166 178 214 320 15 329 345 360 328 314 307 298 296 292 295 296 294 303 309 302 312 321 326 312
169 168 163 161 161 157 155 153 148 140 133 121 113 110 112 107 120 115 110 117 120 83 59 22 355 7 351 336 320 312 311 306 300 301 298 296 301 360 334 323 316 305 295
162 159 150 146 142 139 134 131 120 108 106 106 105 108 98 87 104 99 90 85 83 72 47 24 7 355 331 322 309 308 297 290 291 311 314 322 311 318 314 312 304 296 289
140 134 128 122 118 113 109 107 105 107 103 99 94 95 89 82 85 89 72 73 61 53 47 37 8 333 325 324 317 302 306 318 328 313 306 314 309 309 309 305 299 300 294
104 102 104 107 108 107 108 107 106 103 103 100 93 78 71 59 71 63 70 54 39 354 7 317 298 280 316 315 300 317 313 316 303 308 323 309 309 300 304 299 295 293 298
97 94 93 95 100 102 103 102 105 103 101 97 94 83 74 51 39 55 40 40 359 346 332 313 323 313 305 304 319 325 306 310 324 326 309 305 302 299 301 304 304 303 296
99 96 94 95 96 98 100 97 97 100 99 100 101 95 82 63 45 31 18 4 341 343 316 318 305 292 310 317 317 312 310 320 327 310 304 299 303 305 304 307 302 287 280
93 91 92 93 93 94 97 98 96 92 94 95 95 91 79 49 30 6 348 337 336 324 314 298 311 320 313 319 304 309 321 323 306 300 299 298 297 301 306 302 299 294 293
93 91 90 90 90 85 85 86 90 91 94 96 90 80 58 39 13 345 334 335 328 320 307 311 308 316 311 309 324 313 313 310 303 292 287 294 301 305 303 303 302 310 303
94 92 90 87 88 88 79 78 77 74 85 87 75 59 32 4 332 325 328 320 311 309 318 353 325 321 315 311 309 313 311 308 305 296 297 303 304 300 298 303 300 302 296
97 92 89 89 84 81 80 76 71 75 71 67 57 46 8 335 334 328 323 322 321 322 336 333 321 314 311 313 313 312 311 305 302 307 305 294 294 300 300 303 298 294 296
91 90 87 82 83 86 84 90 101 69 68 59 37 13 1 351 337 332 328 323 334 339 330 321 311 313 316 316 312 308 306 305 310 292 293 297 299 300 303 298 298 296 296
85 82 81 82 83 84 80 76 70 55 26 3 1 357 2 351 342 330 329 0 345 340 324 317 315 312 310 308 306 304 304 303 299 297 297 301 296 292 295 295 298 299 298
82 83 86 85 83 86 86 81 69 50 21 346 340 355 5 342 329 344 353 344 330 319 313 310 312 310 303 302 300 299 297 297 297 296 291 293 293 296 295 294 293 297 298
84 90 89 90 90 85 77 74 58 34 9 351 341 340 332 307 347 347 347 327 318 314 313 311 307 302 301 300 299 298 298 297 297 295 295 296 295 293 294 297 295 296 295
93 91 94 87 80 76 68 57 37 13 348 326 318 322 318 1 330 327 322 316 309 306 308 306 303 297 294 293 295 297 296 298 296 293 295 296 296 296 292 293 294 294 294
92 88 79 79 79 70 54 47 20 322 314 320 324 321 327 327 310 310 306 301 302 301 300 298 295 293 293 295 295 293 292 290 291 292 293 292 292 291 293 291 291 290 291
91 96 92 86 77 111 151 43 340 332 327 321 316 311 316 308 308 303 299 301 302 295 294 294 291 290 286 285 286 287 288 287 287 290 290 292 293 290 290 290 289 288 288
81 83 93 102 87 24 354 343 330 318 303 305 311 312 304 300 299 298 295 293 294 294 293 291 286 283 286 284 282 283 281 283 284 284 288 288 288 289 285 283 283 283 282
92 102 84 70 37 334 317 320 323 316 311 309 303 300 298 295 294 294 294 293 293 293 288 284 282 283 284 286 281 281 280 281 278 279 278 274 273 279 279 278 277 279 278
95 91 84 112 266 287 305 310 309 307 298 292 290 288 290 292 290 290 290 289 288 287 287 285 283 282 284 284 282 282 284 284 283 276 270 273 280 283 282 285 289 286 286